Change the Weather History Date:

Saturday, March 8, 2014

  Actual Average Record
Temperature  
Mean Temperature 62 °F -  
Max Temperature 73 °F 78 °F 91 °F (1974)
Min Temperature 51 °F 57 °F 37 °F (2001)
Degree Days  
Heating Degree Days 3    
Growing Degree Days 12 (Base 50)    
Moisture  
Dew Point 47 °F    
Average Humidity 65    
Maximum Humidity 90    
Minimum Humidity 39    
Precipitation  
Precipitation 0.00 in - - ()
Sea Level Pressure  
Sea Level Pressure 30.11 in    
Wind  
Wind Speed 8 mph (NNE)    
Max Wind Speed 13 mph    
Max Gust Speed -    
Visibility 10 miles    
Events      
Averages and records for this station are not official NWS values.
T = Trace of Precipitation, MM = Missing Value Source: NWS Daily Summary

Daily Weather History Graph

Daily Weather History Graph

Search for Another Location

Airport or City:

Trip Planner

Search our weather history database for the weather conditions in past years. The results will help you decide how hot, cold, wet, or windy it might be!

Date:

Astronomy

Mar. 08, 2014 Rise Set
Actual Time 6:43 AM EST 6:32 PM EST
Civil Twilight 6:20 AM EST 6:55 PM EST
Nautical Twilight 5:53 AM EST 7:22 PM EST
Astronomical Twilight 5:26 AM EST 7:49 PM EST
Moon 11:58 AM EST (3/8) 12:54 AM EST (3/8)
Length of Visible Light 12h 34m
Length of Day
11h 48m
First Quarter, 51% of the Moon is Illuminated
Mar 8
First Quarter
Mar 16
Full
Mar 23
Last Quarter
Mar 30
New
Apr 7
First Quarter

Hourly Weather History & Observations

Time (EST) Temp. Dew Point Humidity Pressure Visibility Wind Dir Wind Speed Gust Speed Precip Events Conditions
12:53 AM 55.9 °F 46.9 °F 72% 30.06 in 10.0 mi North 9.2 mph - N/A   Overcast
1:53 AM 55.9 °F 46.0 °F 69% 30.06 in 10.0 mi North 5.8 mph - N/A   Overcast
2:53 AM 55.0 °F 46.0 °F 72% 30.06 in 10.0 mi North 8.1 mph - N/A   Overcast
3:53 AM 54.0 °F 46.0 °F 75% 30.05 in 10.0 mi NE 10.4 mph - N/A   Overcast
4:53 AM 53.1 °F 46.0 °F 77% 30.05 in 10.0 mi ENE 12.7 mph - N/A   Overcast
5:53 AM 52.0 °F 45.0 °F 77% 30.08 in 10.0 mi NNE 8.1 mph - N/A   Overcast
6:53 AM 51.1 °F 44.1 °F 77% 30.11 in 10.0 mi ENE 9.2 mph - N/A   Overcast
7:53 AM 52.0 °F 42.1 °F 69% 30.15 in 10.0 mi East 10.4 mph - N/A   Mostly Cloudy
8:20 AM 52.0 °F 42.1 °F 69% 30.16 in 10.0 mi ENE 8.1 mph - N/A   Scattered Clouds
8:53 AM 53.1 °F 42.1 °F 66% 30.17 in 10.0 mi NE 8.1 mph - N/A   Clear
9:53 AM 55.9 °F 43.0 °F 62% 30.17 in 10.0 mi ENE 6.9 mph - N/A   Clear
10:53 AM 59.0 °F 44.1 °F 58% 30.16 in 10.0 mi ENE 8.1 mph - N/A   Clear
11:53 AM 62.1 °F 45.0 °F 53% 30.14 in 10.0 mi North 5.8 mph - N/A   Clear
12:53 PM 66.9 °F 46.9 °F 49% 30.11 in 10.0 mi NE 6.9 mph - N/A   Clear
1:53 PM 70.0 °F 48.0 °F 46% 30.09 in 10.0 mi NNW 6.9 mph - N/A   Clear
2:53 PM 72.0 °F 48.0 °F 43% 30.07 in 10.0 mi North 4.6 mph - N/A   Clear
3:53 PM 73.9 °F 48.0 °F 40% 30.05 in 10.0 mi North 6.9 mph - N/A   Clear
4:53 PM 73.0 °F 46.9 °F 39% 30.06 in 10.0 mi East 4.6 mph - N/A   Clear
5:53 PM 72.0 °F 46.9 °F 41% 30.07 in 10.0 mi East 4.6 mph - N/A   Clear
6:53 PM 66.9 °F 48.9 °F 52% 30.09 in 10.0 mi ESE 5.8 mph - N/A   Clear
7:53 PM 64.0 °F 54.0 °F 70% 30.12 in 10.0 mi WNW 4.6 mph - N/A   Clear
8:53 PM 61.0 °F 55.0 °F 81% 30.13 in 10.0 mi NW 4.6 mph - N/A   Clear
9:53 PM 60.1 °F 55.0 °F 83% 30.14 in 10.0 mi NNW 3.5 mph - N/A   Clear
10:53 PM 60.1 °F 55.0 °F 83% 30.15 in 10.0 mi Calm Calm - N/A   Clear
11:53 PM 57.9 °F 55.0 °F 90% 30.15 in 10.0 mi NNE 4.6 mph - N/A   Clear